Perry, IA

1:31 AM CDT on May 27, 2018 (GMT -0500)
Perry Municipal

Weather History for KPRO - February, 2013

Change the Weather History Date:

Friday, February 15, 2013

  Actual Average Record
Temperature  
Mean Temperature 22 °F -  
Max Temperature 28 °F 31 °F 65 °F (1967)
Min Temperature 15 °F 14 °F -9 °F (1958)
Degree Days  
Heating Degree Days 44    
Moisture  
Dew Point 13 °F    
Average Humidity 71    
Maximum Humidity 87    
Minimum Humidity 56    
Precipitation  
Precipitation 0.00 in - - ()
Sea Level Pressure  
Sea Level Pressure 30.29 in    
Wind  
Wind Speed 12 mph (NNW)    
Max Wind Speed 16 mph    
Max Gust Speed 21 mph    
Visibility 10 miles    
Events      
Averages and records for this station are not official NWS values.
T = Trace of Precipitation, MM = Missing Value Source: NWS Daily Summary

Daily Weather History Graph

Daily Weather History Graph

Search for Another Location

Airport or City:

Astronomy

Feb. 15, 2013 Rise Set
Actual Time 7:11 AM CST 5:50 PM CST
Civil Twilight 6:43 AM CST 6:18 PM CST
Nautical Twilight 6:10 AM CST 6:51 PM CST
Astronomical Twilight 5:38 AM CST 7:23 PM CST
Moon 9:42 AM CST (2/15) 11:58 PM CST (2/15)
Length of Visible Light 11h 35m
Length of Day
10h 38m
Waxing Crescent, 30% of the Moon is Illuminated
Feb 15
Waxing Crescent
Feb 17
First Quarter
Feb 25
Full
Mar 4
Last Quarter
Mar 11
New

Hourly Weather History & Observations

Time (CST) Temp. Windchill Dew Point Humidity Pressure Visibility Wind Dir Wind Speed Gust Speed Precip Events Conditions
12:15 AM 21.7 °F 9.0 °F 13.8 °F 72% 30.21 in 10.0 mi NNW 13.8 mph 20.7 mph N/A   Clear
12:35 AM 21.4 °F 8.5 °F 13.6 °F 72% 30.21 in 10.0 mi NNW 13.8 mph 18.4 mph N/A   Clear
12:55 AM 20.8 °F 7.3 °F 13.3 °F 73% 30.22 in 10.0 mi NNW 15.0 mph - N/A   Clear
1:15 AM 20.3 °F 7.2 °F 13.1 °F 74% 30.22 in 10.0 mi NNW 13.8 mph 19.6 mph N/A   Clear
1:35 AM 19.9 °F 7.9 °F 12.6 °F 73% 30.23 in 10.0 mi NNW 11.5 mph - N/A   Clear
1:55 AM 19.9 °F 7.3 °F 12.2 °F 72% 30.23 in 10.0 mi NNW 12.7 mph - N/A   Clear
2:15 AM 19.2 °F 6.4 °F 11.8 °F 73% 30.24 in 10.0 mi NW 12.7 mph 17.3 mph N/A   Clear
2:35 AM 19.0 °F 6.8 °F 11.3 °F 72% 30.25 in 10.0 mi NNW 11.5 mph 17.3 mph N/A   Clear
2:55 AM 18.7 °F 7.0 °F 10.9 °F 72% 30.25 in 10.0 mi NW 10.4 mph - N/A   Clear
3:15 AM 18.5 °F 6.1 °F 10.0 °F 70% 30.26 in 10.0 mi NW 11.5 mph - N/A   Clear
3:35 AM 18.1 °F 6.3 °F 9.7 °F 70% 30.26 in 10.0 mi NW 10.4 mph 17.3 mph N/A   Clear
3:55 AM 18.0 °F 6.9 °F 9.9 °F 71% 30.26 in 10.0 mi NW 9.2 mph - N/A   Clear
4:15 AM 17.6 °F 5.7 °F 9.9 °F 72% 30.26 in 10.0 mi NW 10.4 mph - N/A   Clear
4:35 AM 17.4 °F 7.1 °F 9.7 °F 72% 30.27 in 10.0 mi NW 8.1 mph - N/A   Clear
4:55 AM 17.2 °F 4.5 °F 8.8 °F 69% 30.28 in 10.0 mi NW 11.5 mph - N/A   Clear
5:15 AM 16.9 °F 4.8 °F 8.6 °F 70% 30.28 in 10.0 mi NW 10.4 mph - N/A   Clear
5:35 AM 16.7 °F 5.3 °F 9.5 °F 73% 30.28 in 10.0 mi WNW 9.2 mph - N/A   Clear
5:55 AM 16.3 °F 5.7 °F 9.3 °F 74% 30.28 in 10.0 mi WNW 8.1 mph - N/A   Clear
6:15 AM 16.0 °F 6.3 °F 10.4 °F 79% 30.29 in 10.0 mi WNW 6.9 mph - N/A   Clear
6:35 AM 15.6 °F 5.9 °F 10.4 °F 80% 30.29 in 10.0 mi WNW 6.9 mph - N/A   Clear
6:55 AM 15.6 °F 4.9 °F 10.4 °F 80% 30.29 in 10.0 mi WNW 8.1 mph - N/A   Clear
7:15 AM 15.4 °F 4.6 °F 10.4 °F 80% 30.29 in 10.0 mi WNW 8.1 mph - N/A   Clear
7:35 AM 15.8 °F 4.2 °F 10.4 °F 79% 30.30 in 10.0 mi WNW 9.2 mph - N/A   Clear
7:55 AM 16.2 °F 4.7 °F 11.1 °F 81% 30.30 in 10.0 mi NW 9.2 mph - N/A   Clear
8:15 AM 16.7 °F 3.2 °F 10.9 °F 78% 30.31 in 10.0 mi NW 12.7 mph - N/A   Clear
8:35 AM 17.1 °F 3.0 °F 9.0 °F 71% 30.31 in 10.0 mi NNW 13.8 mph - N/A   Clear
8:55 AM 17.8 °F 5.2 °F 9.1 °F 69% 30.31 in 10.0 mi NNW 11.5 mph - N/A   Clear
9:15 AM 18.3 °F 4.6 °F 9.1 °F 67% 30.32 in 10.0 mi NNW 13.8 mph 17.3 mph N/A   Clear
9:35 AM 18.7 °F 6.3 °F 9.3 °F 67% 30.32 in 10.0 mi NW 11.5 mph - N/A   Scattered Clouds
9:55 AM 19.9 °F 7.9 °F 9.9 °F 65% 30.32 in 10.0 mi NNW 11.5 mph - N/A   Scattered Clouds
10:15 AM 20.5 °F 8.0 °F 10.8 °F 66% 30.32 in 10.0 mi NNW 12.7 mph 19.6 mph N/A   Clear
10:35 AM 21.0 °F 9.3 °F 10.9 °F 65% 30.32 in 10.0 mi NNW 11.5 mph - N/A   Clear
10:55 AM 22.3 °F 9.2 °F 12.4 °F 66% 30.33 in 10.0 mi North 15.0 mph - N/A   Clear
11:15 AM 22.5 °F 10.5 °F 13.1 °F 67% 30.33 in 10.0 mi NNW 12.7 mph 17.3 mph N/A   Scattered Clouds
11:35 AM 23.0 °F 12.4 °F 12.6 °F 64% 30.33 in 10.0 mi NW 10.4 mph 19.6 mph N/A   Scattered Clouds
11:55 AM 24.3 °F 13.3 °F 13.8 °F 64% 30.32 in 10.0 mi NNW 11.5 mph 17.3 mph N/A   Scattered Clouds
12:15 PM 24.8 °F 13.4 °F 14.2 °F 64% 30.31 in 10.0 mi NNW 12.7 mph 17.3 mph N/A   Scattered Clouds
12:35 PM 25.7 °F 13.1 °F 14.0 °F 61% 30.31 in 10.0 mi NNW 16.1 mph - N/A   Scattered Clouds
12:55 PM 25.9 °F 15.3 °F 14.2 °F 61% 30.31 in 10.0 mi NNW 11.5 mph 18.4 mph N/A   Scattered Clouds
1:15 PM 26.1 °F 16.2 °F 14.5 °F 62% 30.30 in 10.0 mi NW 10.4 mph 18.4 mph N/A   Mostly Cloudy
1:35 PM 26.4 °F 15.5 °F 14.5 °F 61% 30.30 in 10.0 mi NNW 12.7 mph - N/A   Mostly Cloudy
1:55 PM 26.6 °F 14.7 °F 14.4 °F 60% 30.30 in 10.0 mi North 15.0 mph 18.4 mph N/A   Scattered Clouds
2:15 PM 26.6 °F 16.8 °F 14.0 °F 59% 30.29 in 10.0 mi North 10.4 mph - N/A   Clear
2:35 PM 26.6 °F 15.2 °F 14.2 °F 60% 30.29 in 10.0 mi North 13.8 mph - N/A   Clear
2:55 PM 27.0 °F 16.1 °F 14.5 °F 60% 30.29 in 10.0 mi NNW 12.7 mph - N/A   Clear
3:15 PM 26.6 °F 16.2 °F 14.5 °F 60% 30.29 in 10.0 mi NNW 11.5 mph - N/A   Mostly Cloudy
3:35 PM 26.8 °F 17.7 °F 14.4 °F 60% 30.29 in 10.0 mi NW 9.2 mph - N/A   Mostly Cloudy
3:55 PM 27.5 °F 18.0 °F 14.5 °F 58% 30.29 in 10.0 mi NW 10.4 mph - N/A   Scattered Clouds
4:15 PM 28.0 °F 18.6 °F 14.2 °F 56% 30.29 in 10.0 mi North 10.4 mph - N/A   Scattered Clouds
4:35 PM 27.7 °F 16.6 °F 14.5 °F 58% 30.29 in 10.0 mi NNW 13.8 mph 18.4 mph N/A   Mostly Cloudy
4:55 PM 27.1 °F 16.9 °F 15.1 °F 60% 30.29 in 10.0 mi NNW 11.5 mph - N/A   Mostly Cloudy
5:15 PM 27.0 °F 15.6 °F 14.5 °F 60% 30.30 in 10.0 mi North 13.8 mph 17.3 mph N/A   Mostly Cloudy
5:35 PM 26.6 °F 16.2 °F 15.6 °F 63% 30.30 in 10.0 mi NNW 11.5 mph - N/A   Mostly Cloudy
5:55 PM 25.5 °F 13.8 °F 15.3 °F 65% 30.30 in 10.0 mi North 13.8 mph - N/A   Mostly Cloudy
6:15 PM 24.8 °F 14.6 °F 15.6 °F 68% 30.30 in 10.0 mi North 10.4 mph - N/A   Scattered Clouds
6:35 PM 24.3 °F 14.6 °F 16.2 °F 71% 30.30 in 10.0 mi North 9.2 mph - N/A   Clear
6:55 PM 23.9 °F 12.3 °F 15.8 °F 71% 30.30 in 10.0 mi North 12.7 mph - N/A   Clear
7:15 PM 23.0 °F 11.7 °F 15.6 °F 73% 30.31 in 10.0 mi North 11.5 mph - N/A   Clear
7:35 PM 22.6 °F 12.6 °F 15.4 °F 74% 30.31 in 10.0 mi North 9.2 mph - N/A   Clear
7:55 PM 22.1 °F 11.3 °F 15.4 °F 76% 30.31 in 10.0 mi North 10.4 mph - N/A   Clear
8:15 PM 21.6 °F 9.3 °F 15.3 °F 77% 30.31 in 10.0 mi NNW 12.7 mph - N/A   Clear
8:35 PM 21.0 °F 9.9 °F 14.9 °F 77% 30.31 in 10.0 mi North 10.4 mph - N/A   Clear
8:55 PM 20.7 °F 10.2 °F 15.6 °F 81% 30.31 in 10.0 mi North 9.2 mph - N/A   Clear
9:15 PM 19.9 °F 9.3 °F 15.6 °F 83% 30.32 in 10.0 mi North 9.2 mph - N/A   Clear
9:35 PM 19.4 °F 9.5 °F 14.9 °F 83% 30.32 in 10.0 mi North 8.1 mph - N/A   Clear
9:55 PM 18.9 °F 10.8 °F 14.7 °F 84% 30.32 in 10.0 mi NNW 5.8 mph - N/A   Clear
10:15 PM 17.6 °F 9.3 °F 14.4 °F 87% 30.31 in 10.0 mi NNW 5.8 mph - N/A   Clear
10:35 PM 17.4 °F 9.1 °F 13.5 °F 84% 30.31 in 10.0 mi NNW 5.8 mph - N/A   Clear
11:15 PM 16.3 °F 6.7 °F 12.9 °F 86% 30.31 in 10.0 mi NNW 6.9 mph - N/A   Clear
11:35 PM 16.2 °F 6.5 °F 12.7 °F 86% 30.31 in 10.0 mi NNW 6.9 mph - N/A   Clear
11:55 PM 16.0 °F 4.4 °F 12.4 °F 86% 30.31 in 10.0 mi NNW 9.2 mph - N/A   Clear